"Sample Date","Sample Time","Sensor Name","Sample Value","Units","Flow Rate","Sample Interval","Sample Volume","Laser Status","Number Channels","Micron Size 0","Counts/Channel 0","Micron Size 1","Counts/Channel 1","Micron Size 2","Counts/Channel 2","Micron Size 3","Counts/Channel 3","Micron Size 4","Counts/Channel 4","Micron Size 5","Counts/Channel 5","Micron Size 6","Counts/Channel 6","Micron Size 7","Counts/Channel 7","Micron Size 8","Counts/Channel 8","Micron Size 9","Counts/Channel 9","Micron Size 10","Counts/Channel 10","Micron Size 11","Counts/Channel 11","Micron Size 12","Counts/Channel 12","Micron Size 13","Counts/Channel 13","Micron Size 14","Counts/Channel 14","Micron Size 15","Counts/Channel 15","Micron Size 16","Counts/Channel 16","Micron Size 17","Counts/Channel 17","Micron Size 18","Counts/Channel 18","Micron Size 19","Counts/Channel 19","Micron Size 20","Counts/Channel 20","Micron Size 21","Counts/Channel 21","Micron Size 22","Counts/Channel 22","Micron Size 23","Counts/Channel 23","Micron Size 24","Counts/Channel 24","Micron Size 25","Counts/Channel 25","Micron Size 26","Counts/Channel 26","Micron Size 27","Counts/Channel 27","Micron Size 28","Counts/Channel 28","Micron Size 29","Counts/Channel 29","Micron Size 30","Counts/Channel 30","Micron Size 31","Counts/Channel 31"
"07/01/06","10:00:04","AMMA06",48417.000,"cc",28321.768,6.00,2832.177,1,6,0.100,26107.000,0.200,17632.000,0.300,3395.000,0.500,748.000,1.000,534.000,5.000,1.000
"07/01/06","10:00:10","AMMA06",48781.000,"cc",28304.264,6.00,2830.427,1,6,0.100,26234.000,0.200,17931.000,0.300,3407.000,0.500,704.000,1.000,504.000,5.000,1.000
"07/01/06","10:00:16","AMMA06",48290.000,"cc",28326.891,6.00,2832.689,1,6,0.100,25959.000,0.200,17672.000,0.300,3392.000,0.500,756.000,1.000,511.000,5.000,0
"07/01/06","10:00:22","AMMA06",49077.000,"cc",28287.184,6.00,2828.719,1,6,0.100,26477.000,0.200,17930.000,0.300,3482.000,0.500,720.000,1.000,468.000,5.000,0
"07/01/06","10:00:28","AMMA06",48433.000,"cc",28384.701,6.00,2838.470,1,6,0.100,26037.000,0.200,17692.000,0.300,3409.000,0.500,738.000,1.000,555.000,5.000,2.000
"07/01/06","10:00:34","AMMA06",48719.000,"cc",28322.315,6.00,2832.232,1,6,0.100,26192.000,0.200,17873.000,0.300,3450.000,0.500,699.000,1.000,503.000,5.000,2.000
"07/01/06","10:00:40","AMMA06",48289.000,"cc",28241.434,6.00,2824.144,1,6,0.100,25807.000,0.200,17856.000,0.300,3437.000,0.500,717.000,1.000,472.000,5.000,0
"07/01/06","10:00:46","AMMA06",48502.000,"cc",28350.922,6.00,2835.092,1,6,0.100,26033.000,0.200,17747.000,0.300,3494.000,0.500,748.000,1.000,479.000,5.000,1.000
"07/01/06","10:00:52","AMMA06",48421.000,"cc",28351.582,6.00,2835.158,1,6,0.100,26010.000,0.200,17820.000,0.300,3361.000,0.500,714.000,1.000,515.000,5.000,1.000
"07/01/06","10:00:58","AMMA06",48661.000,"cc",28343.373,6.00,2834.337,1,6,0.100,26102.000,0.200,17870.000,0.300,3389.000,0.500,768.000,1.000,531.000,5.000,1.000
"07/01/06","10:01:04","AMMA06",48751.000,"cc",28274.422,6.00,2827.442,1,6,0.100,26119.000,0.200,17880.000,0.300,3485.000,0.500,737.000,1.000,528.000,5.000,2.000
"07/01/06","10:01:10","AMMA06",48582.000,"cc",28337.938,6.00,2833.794,1,6,0.100,25726.000,0.200,18069.000,0.300,3521.000,0.500,743.000,1.000,523.000,5.000,0
"07/01/06","10:01:16","AMMA06",48907.000,"cc",28250.537,6.00,2825.054,1,6,0.100,26078.000,0.200,17979.000,0.300,3578.000,0.500,750.000,1.000,522.000,5.000,0
"07/01/06","10:01:22","AMMA06",48269.000,"cc",28321.645,6.00,2832.165,1,6,0.100,25739.000,0.200,17908.000,0.300,3362.000,0.500,735.000,1.000,525.000,5.000,0
"07/01/06","10:01:28","AMMA06",48634.000,"cc",28372.840,6.00,2837.284,1,6,0.100,26026.000,0.200,17817.000,0.300,3580.000,0.500,677.000,1.000,534.000,5.000,0
"07/01/06","10:01:34","AMMA06",48628.000,"cc",28273.248,6.00,2827.325,1,6,0.100,26019.000,0.200,17925.000,0.300,3517.000,0.500,684.000,1.000,483.000,5.000,0
"07/01/06","10:01:40","AMMA06",49070.000,"cc",28283.650,6.00,2828.365,1,6,0.100,26095.000,0.200,18361.000,0.300,3384.000,0.500,700.000,1.000,530.000,5.000,0
"07/01/06","10:01:46","AMMA06",48926.000,"cc",28356.762,6.00,2835.676,1,6,0.100,26093.000,0.200,18024.000,0.300,3571.000,0.500,741.000,1.000,494.000,5.000,3.000
"07/01/06","10:01:52","AMMA06",48869.000,"cc",28331.053,6.00,2833.106,1,6,0.100,26132.000,0.200,17954.000,0.300,3571.000,0.500,708.000,1.000,503.000,5.000,1.000
"07/01/06","10:01:58","AMMA06",48426.000,"cc",28297.309,6.00,2829.731,1,6,0.100,25768.000,0.200,17956.000,0.300,3487.000,0.500,712.000,1.000,503.000,5.000,0
"07/01/06","10:02:04","AMMA06",48941.000,"cc",28315.674,6.00,2831.568,1,6,0.100,25938.000,0.200,18361.000,0.300,3415.000,0.500,718.000,1.000,508.000,5.000,1.000
"07/01/06","10:02:10","AMMA06",49223.000,"cc",28324.666,6.00,2832.467,1,6,0.100,26349.000,0.200,18027.000,0.300,3557.000,0.500,769.000,1.000,521.000,5.000,0
"07/01/06","10:02:16","AMMA06",48518.000,"cc",28347.162,6.00,2834.716,1,6,0.100,25771.000,0.200,17886.000,0.300,3696.000,0.500,668.000,1.000,497.000,5.000,0
"07/01/06","10:02:22","AMMA06",49213.000,"cc",28341.041,6.00,2834.104,1,6,0.100,26338.000,0.200,18042.000,0.300,3595.000,0.500,734.000,1.000,502.000,5.000,2.000
"07/01/06","10:02:28","AMMA06",48697.000,"cc",28267.123,6.00,2826.712,1,6,0.100,25942.000,0.200,17998.000,0.300,3481.000,0.500,755.000,1.000,521.000,5.000,0
"07/01/06","10:02:34","AMMA06",49042.000,"cc",28291.940,6.00,2829.194,1,6,0.100,26102.000,0.200,18064.000,0.300,3546.000,0.500,776.000,1.000,553.000,5.000,1.000
"07/01/06","10:02:40","AMMA06",48653.000,"cc",28317.611,6.00,2831.761,1,6,0.100,25938.000,0.200,17947.000,0.300,3513.000,0.500,757.000,1.000,497.000,5.000,1.000
"07/01/06","10:02:46","AMMA06",49007.000,"cc",28326.570,6.00,2832.657,1,6,0.100,26287.000,0.200,17984.000,0.300,3482.000,0.500,702.000,1.000,549.000,5.000,3.000
"07/01/06","10:02:52","AMMA06",48468.000,"cc",28327.859,6.00,2832.786,1,6,0.100,26044.000,0.200,17750.000,0.300,3454.000,0.500,726.000,1.000,494.000,5.000,0
"07/01/06","10:02:58","AMMA06",48761.000,"cc",28312.959,6.00,2831.296,1,6,0.100,25909.000,0.200,18109.000,0.300,3498.000,0.500,730.000,1.000,514.000,5.000,1.000
"07/01/06","10:03:04","AMMA06",48485.000,"cc",28319.891,6.00,2831.989,1,6,0.100,25873.000,0.200,17900.000,0.300,3500.000,0.500,702.000,1.000,508.000,5.000,2.000
"07/01/06","10:03:10","AMMA06",48742.000,"cc",28278.289,6.00,2827.829,1,6,0.100,25813.000,0.200,18134.000,0.300,3496.000,0.500,761.000,1.000,538.000,5.000,0
"07/01/06","10:03:16","AMMA06",48527.000,"cc",28312.125,6.00,2831.213,1,6,0.100,25822.000,0.200,18032.000,0.300,3456.000,0.500,692.000,1.000,524.000,5.000,1.000
"07/01/06","10:03:22","AMMA06",48294.000,"cc",28380.643,6.00,2838.065,1,6,0.100,25698.000,0.200,17797.000,0.300,3572.000,0.500,722.000,1.000,505.000,5.000,0
"07/01/06","10:03:28","AMMA06",48544.000,"cc",28371.316,6.00,2837.132,1,6,0.100,26026.000,0.200,17881.000,0.300,3474.000,0.500,709.000,1.000,454.000,5.000,0
"07/01/06","10:03:34","AMMA06",48564.000,"cc",28239.283,6.00,2823.929,1,6,0.100,26007.000,0.200,17747.000,0.300,3572.000,0.500,720.000,1.000,518.000,5.000,0
"07/01/06","10:03:40","AMMA06",48588.000,"cc",28292.574,6.00,2829.258,1,6,0.100,25855.000,0.200,17931.000,0.300,3555.000,0.500,729.000,1.000,518.000,5.000,0
"07/01/06","10:03:46","AMMA06",48481.000,"cc",28341.377,6.00,2834.138,1,6,0.100,26089.000,0.200,17767.000,0.300,3400.000,0.500,729.000,1.000,495.000,5.000,1.000
"07/01/06","10:03:52","AMMA06",48433.000,"cc",28321.180,6.00,2832.118,1,6,0.100,26066.000,0.200,17706.000,0.300,3462.000,0.500,731.000,1.000,468.000,5.000,0
"07/01/06","10:03:58","AMMA06",48136.000,"cc",28314.359,6.00,2831.436,1,6,0.100,25877.000,0.200,17673.000,0.300,3389.000,0.500,686.000,1.000,511.000,5.000,0
"07/01/06","10:04:04","AMMA06",48382.000,"cc",28341.121,6.00,2834.112,1,6,0.100,25927.000,0.200,17692.000,0.300,3468.000,0.500,767.000,1.000,527.000,5.000,1.000
"07/01/06","10:04:10","AMMA06",48070.000,"cc",28304.625,6.00,2830.463,1,6,0.100,25614.000,0.200,17788.000,0.300,3469.000,0.500,699.000,1.000,499.000,5.000,1.000
"07/01/06","10:04:16","AMMA06",48239.000,"cc",28294.344,6.00,2829.435,1,6,0.100,26042.000,0.200,17579.000,0.300,3421.000,0.500,675.000,1.000,522.000,5.000,0
"07/01/06","10:04:22","AMMA06",48324.000,"cc",28270.963,6.00,2827.096,1,6,0.100,25944.000,0.200,17773.000,0.300,3424.000,0.500,653.000,1.000,530.000,5.000,0
"07/01/06","10:04:28","AMMA06",48239.000,"cc",28309.703,6.00,2830.971,1,6,0.100,25883.000,0.200,17690.000,0.300,3386.000,0.500,746.000,1.000,534.000,5.000,0
"07/01/06","10:04:34","AMMA06",48513.000,"cc",28341.107,6.00,2834.111,1,6,0.100,26147.000,0.200,17703.000,0.300,3422.000,0.500,734.000,1.000,506.000,5.000,1.000
"07/01/06","10:04:40","AMMA06",48154.000,"cc",28304.029,6.00,2830.403,1,6,0.100,25992.000,0.200,17602.000,0.300,3341.000,0.500,722.000,1.000,496.000,5.000,1.000
"07/01/06","10:04:46","AMMA06",48563.000,"cc",28397.574,6.00,2839.758,1,6,0.100,26087.000,0.200,17817.000,0.300,3405.000,0.500,732.000,1.000,522.000,5.000,0
"07/01/06","10:04:52","AMMA06",48442.000,"cc",28249.643,6.00,2824.964,1,6,0.100,26169.000,0.200,17584.000,0.300,3456.000,0.500,713.000,1.000,518.000,5.000,2.000
"07/01/06","10:04:57","AMMA06",48470.000,"cc",28245.758,6.00,2824.576,1,6,0.100,26026.000,0.200,17830.000,0.300,3368.000,0.500,714.000,1.000,528.000,5.000,4.000
"07/01/06","10:05:03","AMMA06",48147.000,"cc",28349.990,6.00,2834.999,1,6,0.100,25915.000,0.200,17613.000,0.300,3371.000,0.500,746.000,1.000,501.000,5.000,1.000
"07/01/06","10:05:09","AMMA06",48518.000,"cc",28298.867,6.00,2829.887,1,6,0.100,26181.000,0.200,17801.000,0.300,3329.000,0.500,715.000,1.000,492.000,5.000,0
"07/01/06","10:05:15","AMMA06",47778.000,"cc",28338.045,6.00,2833.805,1,6,0.100,25591.000,0.200,17515.000,0.300,3435.000,0.500,721.000,1.000,516.000,5.000,0
"07/01/06","10:05:21","AMMA06",47957.000,"cc",28295.582,6.00,2829.558,1,6,0.100,25945.000,0.200,17385.000,0.300,3425.000,0.500,665.000,1.000,537.000,5.000,0
"07/01/06","10:05:27","AMMA06",48009.000,"cc",28340.385,6.00,2834.039,1,6,0.100,25671.000,0.200,17746.000,0.300,3412.000,0.500,662.000,1.000,516.000,5.000,2.000
"07/01/06","10:05:33","AMMA06",48357.000,"cc",28298.949,6.00,2829.895,1,6,0.100,25814.000,0.200,17929.000,0.300,3405.000,0.500,711.000,1.000,498.000,5.000,0
"07/01/06","10:05:39","AMMA06",48287.000,"cc",28311.188,6.00,2831.119,1,6,0.100,25840.000,0.200,17806.000,0.300,3421.000,0.500,726.000,1.000,493.000,5.000,1.000
"07/01/06","10:05:45","AMMA06",48134.000,"cc",28298.727,6.00,2829.873,1,6,0.100,25857.000,0.200,17646.000,0.300,3461.000,0.500,672.000,1.000,497.000,5.000,1.000
"07/01/06","10:05:51","AMMA06",48593.000,"cc",28331.338,6.00,2833.134,1,6,0.100,25933.000,0.200,17951.000,0.300,3488.000,0.500,733.000,1.000,488.000,5.000,0
"07/01/06","10:05:57","AMMA06",48108.000,"cc",28327.383,6.00,2832.739,1,6,0.100,25670.000,0.200,17835.000,0.300,3390.000,0.500,709.000,1.000,504.000,5.000,0
"07/01/06","10:06:03","AMMA06",48751.000,"cc",28312.584,6.00,2831.259,1,6,0.100,25934.000,0.200,17996.000,0.300,3544.000,0.500,730.000,1.000,546.000,5.000,1.000
"07/01/06","10:06:09","AMMA06",48534.000,"cc",28311.404,6.00,2831.141,1,6,0.100,25880.000,0.200,17917.000,0.300,3482.000,0.500,695.000,1.000,560.000,5.000,0
"07/01/06","10:06:15","AMMA06",48136.000,"cc",28302.514,6.00,2830.252,1,6,0.100,25543.000,0.200,17781.000,0.300,3582.000,0.500,738.000,1.000,492.000,5.000,0
"07/01/06","10:06:21","AMMA06",48507.000,"cc",28328.357,6.00,2832.836,1,6,0.100,25856.000,0.200,17936.000,0.300,3491.000,0.500,709.000,1.000,513.000,5.000,2.000
"07/01/06","10:06:27","AMMA06",48672.000,"cc",28330.506,6.00,2833.051,1,6,0.100,26019.000,0.200,17872.000,0.300,3520.000,0.500,718.000,1.000,542.000,5.000,1.000
"07/01/06","10:06:33","AMMA06",48164.000,"cc",28278.346,6.00,2827.835,1,6,0.100,25708.000,0.200,17658.000,0.300,3623.000,0.500,697.000,1.000,477.000,5.000,1.000
"07/01/06","10:06:39","AMMA06",48348.000,"cc",28356.873,6.00,2835.688,1,6,0.100,25477.000,0.200,18104.000,0.300,3600.000,0.500,670.000,1.000,496.000,5.000,1.000
"07/01/06","10:06:45","AMMA06",48315.000,"cc",28334.500,6.00,2833.450,1,6,0.100,25564.000,0.200,17946.000,0.300,3597.000,0.500,687.000,1.000,519.000,5.000,2.000
"07/01/06","10:06:51","AMMA06",48201.000,"cc",28317.232,6.00,2831.723,1,6,0.100,25556.000,0.200,17734.000,0.300,3635.000,0.500,750.000,1.000,525.000,5.000,1.000
"07/01/06","10:06:57","AMMA06",48336.000,"cc",28258.611,6.00,2825.861,1,6,0.100,25578.000,0.200,17998.000,0.300,3487.000,0.500,738.000,1.000,535.000,5.000,0
"07/01/06","10:07:03","AMMA06",48239.000,"cc",28278.311,6.00,2827.831,1,6,0.100,25774.000,0.200,17806.000,0.300,3432.000,0.500,714.000,1.000,512.000,5.000,1.000
"07/01/06","10:07:09","AMMA06",48017.000,"cc",28322.184,6.00,2832.219,1,6,0.100,25644.000,0.200,17679.000,0.300,3455.000,0.500,704.000,1.000,534.000,5.000,1.000
"07/01/06","10:07:15","AMMA06",48357.000,"cc",28370.916,6.00,2837.092,1,6,0.100,25812.000,0.200,17689.000,0.300,3580.000,0.500,769.000,1.000,506.000,5.000,1.000
"07/01/06","10:07:21","AMMA06",48161.000,"cc",28309.383,6.00,2830.939,1,6,0.100,25642.000,0.200,17695.000,0.300,3581.000,0.500,713.000,1.000,529.000,5.000,1.000
"07/01/06","10:07:27","AMMA06",48522.000,"cc",28301.059,6.00,2830.106,1,6,0.100,25829.000,0.200,17897.000,0.300,3548.000,0.500,731.000,1.000,516.000,5.000,1.000
"07/01/06","10:07:33","AMMA06",47881.000,"cc",28329.975,6.00,2832.998,1,6,0.100,25532.000,0.200,17525.000,0.300,3630.000,0.500,714.000,1.000,480.000,5.000,0
"07/01/06","10:07:39","AMMA06",48111.000,"cc",28284.588,6.00,2828.459,1,6,0.100,25634.000,0.200,17638.000,0.300,3589.000,0.500,739.000,1.000,511.000,5.000,0
"07/01/06","10:07:45","AMMA06",47831.000,"cc",28321.150,6.00,2832.115,1,6,0.100,25322.000,0.200,17635.000,0.300,3628.000,0.500,700.000,1.000,544.000,5.000,2.000
"07/01/06","10:07:51","AMMA06",47914.000,"cc",28334.762,6.00,2833.476,1,6,0.100,25470.000,0.200,17727.000,0.300,3473.000,0.500,705.000,1.000,539.000,5.000,0
"07/01/06","10:07:57","AMMA06",48430.000,"cc",28320.990,6.00,2832.099,1,6,0.100,25682.000,0.200,17874.000,0.300,3591.000,0.500,739.000,1.000,543.000,5.000,1.000
"07/01/06","10:08:03","AMMA06",47729.000,"cc",28326.139,6.00,2832.614,1,6,0.100,25441.000,0.200,17622.000,0.300,3485.000,0.500,691.000,1.000,490.000,5.000,0
"07/01/06","10:08:09","AMMA06",47623.000,"cc",28369.121,6.00,2836.912,1,6,0.100,25233.000,0.200,17790.000,0.300,3414.000,0.500,649.000,1.000,535.000,5.000,2.000
"07/01/06","10:08:15","AMMA06",47979.000,"cc",28293.170,6.00,2829.317,1,6,0.100,25375.000,0.200,17880.000,0.300,3500.000,0.500,708.000,1.000,516.000,5.000,0
"07/01/06","10:08:21","AMMA06",47943.000,"cc",28302.996,6.00,2830.300,1,6,0.100,25484.000,0.200,17782.000,0.300,3449.000,0.500,704.000,1.000,524.000,5.000,0
"07/01/06","10:08:27","AMMA06",48598.000,"cc",28258.512,6.00,2825.851,1,6,0.100,25896.000,0.200,17947.000,0.300,3551.000,0.500,693.000,1.000,511.000,5.000,0
"07/01/06","10:08:33","AMMA06",48078.000,"cc",28318.277,6.00,2831.828,1,6,0.100,25597.000,0.200,17739.000,0.300,3517.000,0.500,705.000,1.000,520.000,5.000,0
"07/01/06","10:08:39","AMMA06",48445.000,"cc",28331.190,6.00,2833.119,1,6,0.100,25578.000,0.200,18018.000,0.300,3594.000,0.500,748.000,1.000,507.000,5.000,0
"07/01/06","10:08:45","AMMA06",48213.000,"cc",28321.217,6.00,2832.122,1,6,0.100,25641.000,0.200,17810.000,0.300,3504.000,0.500,738.000,1.000,520.000,5.000,0
"07/01/06","10:08:51","AMMA06",48102.000,"cc",28314.842,6.00,2831.484,1,6,0.100,25561.000,0.200,17836.000,0.300,3531.000,0.500,657.000,1.000,516.000,5.000,1.000
"07/01/06","10:08:57","AMMA06",47951.000,"cc",28298.756,6.00,2829.876,1,6,0.100,25570.000,0.200,17624.000,0.300,3481.000,0.500,727.000,1.000,548.000,5.000,1.000
"07/01/06","10:09:03","AMMA06",47866.000,"cc",28309.910,6.00,2830.991,1,6,0.100,25399.000,0.200,17723.000,0.300,3557.000,0.500,680.000,1.000,505.000,5.000,2.000
"07/01/06","10:09:09","AMMA06",48080.000,"cc",28338.465,6.00,2833.847,1,6,0.100,25701.000,0.200,17622.000,0.300,3513.000,0.500,712.000,1.000,531.000,5.000,1.000
"07/01/06","10:09:15","AMMA06",47858.000,"cc",28341.918,6.00,2834.192,1,6,0.100,25481.000,0.200,17695.000,0.300,3513.000,0.500,670.000,1.000,499.000,5.000,0
"07/01/06","10:09:21","AMMA06",47482.000,"cc",28325.953,6.00,2832.596,1,6,0.100,25346.000,0.200,17472.000,0.300,3471.000,0.500,707.000,1.000,485.000,5.000,1.000
"07/01/06","10:09:27","AMMA06",48108.000,"cc",28332.850,6.00,2833.285,1,6,0.100,25702.000,0.200,17556.000,0.300,3533.000,0.500,765.000,1.000,552.000,5.000,0
"07/01/06","10:09:33","AMMA06",47395.000,"cc",28333.666,6.00,2833.367,1,6,0.100,25518.000,0.200,17220.000,0.300,3405.000,0.500,732.000,1.000,520.000,5.000,0
"07/01/06","10:09:39","AMMA06",47826.000,"cc",28325.160,6.00,2832.516,1,6,0.100,25646.000,0.200,17564.000,0.300,3408.000,0.500,674.000,1.000,533.000,5.000,1.000
"07/01/06","10:09:45","AMMA06",47458.000,"cc",28317.221,6.00,2831.722,1,6,0.100,25499.000,0.200,17362.000,0.300,3435.000,0.500,662.000,1.000,498.000,5.000,2.000
"07/01/06","10:09:51","AMMA06",47675.000,"cc",28318.014,6.00,2831.802,1,6,0.100,25655.000,0.200,17518.000,0.300,3283.000,0.500,710.000,1.000,508.000,5.000,1.000
"07/01/06","10:09:57","AMMA06",47523.000,"cc",28287.506,6.00,2828.751,1,6,0.100,25776.000,0.200,17285.000,0.300,3311.000,0.500,683.000,1.000,468.000,5.000,0
"07/01/06","10:10:03","AMMA06",47406.000,"cc",28312.357,6.00,2831.236,1,6,0.100,25727.000,0.200,17285.000,0.300,3226.000,0.500,672.000,1.000,495.000,5.000,1.000
"07/01/06","10:10:09","AMMA06",47249.000,"cc",28379.281,6.00,2837.928,1,6,0.100,25681.000,0.200,17014.000,0.300,3373.000,0.500,676.000,1.000,504.000,5.000,1.000
"07/01/06","10:10:15","AMMA06",47552.000,"cc",28335.742,6.00,2833.575,1,6,0.100,26109.000,0.200,16975.000,0.300,3269.000,0.500,672.000,1.000,525.000,5.000,2.000
"07/01/06","10:10:21","AMMA06",47231.000,"cc",28247.125,6.00,2824.713,1,6,0.100,25638.000,0.200,17136.000,0.300,3310.000,0.500,649.000,1.000,498.000,5.000,0
"07/01/06","10:10:27","AMMA06",47301.000,"cc",28314.852,6.00,2831.485,1,6,0.100,25812.000,0.200,17008.000,0.300,3249.000,0.500,717.000,1.000,515.000,5.000,0
"07/01/06","10:10:33","AMMA06",47308.000,"cc",28309.752,6.00,2830.975,1,6,0.100,25722.000,0.200,17060.000,0.300,3266.000,0.500,774.000,1.000,485.000,5.000,1.000
"07/01/06","10:10:39","AMMA06",47059.000,"cc",28319.643,6.00,2831.964,1,6,0.100,25538.000,0.200,17104.000,0.300,3194.000,0.500,723.000,1.000,500.000,5.000,0
"07/01/06","10:10:45","AMMA06",46792.000,"cc",28349.863,6.00,2834.987,1,6,0.100,25561.000,0.200,16856.000,0.300,3210.000,0.500,699.000,1.000,465.000,5.000,1.000
"07/01/06","10:10:51","AMMA06",47062.000,"cc",28312.426,6.00,2831.243,1,6,0.100,25884.000,0.200,16782.000,0.300,3223.000,0.500,731.000,1.000,442.000,5.000,0
"07/01/06","10:10:57","AMMA06",46661.000,"cc",28311.471,6.00,2831.147,1,6,0.100,25477.000,0.200,16599.000,0.300,3359.000,0.500,700.000,1.000,524.000,5.000,2.000
"07/01/06","10:11:03","AMMA06",46611.000,"cc",28322.967,6.00,2832.297,1,6,0.100,25570.000,0.200,16653.000,0.300,3219.000,0.500,701.000,1.000,467.000,5.000,1.000
"07/01/06","10:11:09","AMMA06",47081.000,"cc",28293.289,6.00,2829.329,1,6,0.100,25885.000,0.200,16854.000,0.300,3119.000,0.500,707.000,1.000,516.000,5.000,0
"07/01/06","10:11:15","AMMA06",47232.000,"cc",28298.688,6.00,2829.869,1,6,0.100,25818.000,0.200,16843.000,0.300,3389.000,0.500,681.000,1.000,499.000,5.000,2.000
"07/01/06","10:11:21","AMMA06",47034.000,"cc",28329.971,6.00,2832.997,1,6,0.100,25782.000,0.200,16791.000,0.300,3236.000,0.500,730.000,1.000,495.000,5.000,0
"07/01/06","10:11:27","AMMA06",46858.000,"cc",28324.332,6.00,2832.433,1,6,0.100,25797.000,0.200,16660.000,0.300,3224.000,0.500,671.000,1.000,506.000,5.000,0
"07/01/06","10:11:33","AMMA06",46818.000,"cc",28364.647,6.00,2836.465,1,6,0.100,25699.000,0.200,16772.000,0.300,3217.000,0.500,647.000,1.000,483.000,5.000,0
"07/01/06","10:11:39","AMMA06",46602.000,"cc",28339.320,6.00,2833.932,1,6,0.100,25550.000,0.200,16719.000,0.300,3150.000,0.500,689.000,1.000,491.000,5.000,3.000
"07/01/06","10:11:45","AMMA06",47125.000,"cc",28261.695,6.00,2826.170,1,6,0.100,25973.000,0.200,16803.000,0.300,3144.000,0.500,712.000,1.000,491.000,5.000,2.000
"07/01/06","10:11:51","AMMA06",46877.000,"cc",28297.006,6.00,2829.701,1,6,0.100,25686.000,0.200,16784.000,0.300,3201.000,0.500,707.000,1.000,498.000,5.000,1.000
"07/01/06","10:11:57","AMMA06",47162.000,"cc",28337.080,6.00,2833.708,1,6,0.100,25695.000,0.200,17019.000,0.300,3243.000,0.500,719.000,1.000,486.000,5.000,0
"07/01/06","10:12:03","AMMA06",46156.000,"cc",28340.857,6.00,2834.086,1,6,0.100,25037.000,0.200,16706.000,0.300,3228.000,0.500,681.000,1.000,504.000,5.000,0
"07/01/06","10:12:09","AMMA06",46999.000,"cc",28319.842,6.00,2831.984,1,6,0.100,25653.000,0.200,16905.000,0.300,3247.000,0.500,669.000,1.000,524.000,5.000,1.000
"07/01/06","10:12:15","AMMA06",46885.000,"cc",28310.684,6.00,2831.069,1,6,0.100,25780.000,0.200,16645.000,0.300,3258.000,0.500,675.000,1.000,527.000,5.000,0
"07/01/06","10:12:21","AMMA06",47043.000,"cc",28346.199,6.00,2834.620,1,6,0.100,25857.000,0.200,16826.000,0.300,3123.000,0.500,718.000,1.000,518.000,5.000,1.000
"07/01/06","10:12:27","AMMA06",46721.000,"cc",28318.559,6.00,2831.856,1,6,0.100,25459.000,0.200,16868.000,0.300,3244.000,0.500,663.000,1.000,486.000,5.000,1.000
"07/01/06","10:12:33","AMMA06",46800.000,"cc",28355.111,6.00,2835.511,1,6,0.100,25621.000,0.200,16725.000,0.300,3256.000,0.500,708.000,1.000,488.000,5.000,2.000
"07/01/06","10:12:39","AMMA06",46637.000,"cc",28309.666,6.00,2830.967,1,6,0.100,25335.000,0.200,16946.000,0.300,3202.000,0.500,703.000,1.000,451.000,5.000,0
"07/01/06","10:12:45","AMMA06",46870.000,"cc",28334.897,6.00,2833.490,1,6,0.100,25475.000,0.200,16963.000,0.300,3204.000,0.500,720.000,1.000,507.000,5.000,1.000
"07/01/06","10:12:51","AMMA06",46603.000,"cc",28293.463,6.00,2829.346,1,6,0.100,25323.000,0.200,16909.000,0.300,3205.000,0.500,690.000,1.000,476.000,5.000,0
"07/01/06","10:12:57","AMMA06",46667.000,"cc",28351.840,6.00,2835.184,1,6,0.100,25369.000,0.200,16786.000,0.300,3296.000,0.500,733.000,1.000,482.000,5.000,1.000
"07/01/06","10:13:03","AMMA06",46549.000,"cc",28284.785,6.00,2828.479,1,6,0.100,25416.000,0.200,16649.000,0.300,3322.000,0.500,695.000,1.000,466.000,5.000,1.000
"07/01/06","10:13:09","AMMA06",46477.000,"cc",28269.600,6.00,2826.960,1,6,0.100,25331.000,0.200,16781.000,0.300,3206.000,0.500,674.000,1.000,484.000,5.000,1.000
"07/01/06","10:13:15","AMMA06",47128.000,"cc",28308.373,6.00,2830.837,1,6,0.100,25481.000,0.200,17236.000,0.300,3232.000,0.500,705.000,1.000,473.000,5.000,1.000
"07/01/06","10:13:21","AMMA06",47152.000,"cc",28351.686,6.00,2835.169,1,6,0.100,25545.000,0.200,17174.000,0.300,3266.000,0.500,666.000,1.000,499.000,5.000,2.000
"07/01/06","10:13:27","AMMA06",46865.000,"cc",28318.979,6.00,2831.898,1,6,0.100,25316.000,0.200,16962.000,0.300,3329.000,0.500,730.000,1.000,527.000,5.000,1.000
"07/01/06","10:13:33","AMMA06",47268.000,"cc",28300.043,6.00,2830.004,1,6,0.100,25645.000,0.200,17043.000,0.300,3325.000,0.500,730.000,1.000,525.000,5.000,0
"07/01/06","10:13:39","AMMA06",47057.000,"cc",28334.145,6.00,2833.415,1,6,0.100,25557.000,0.200,16980.000,0.300,3275.000,0.500,698.000,1.000,546.000,5.000,1.000
"07/01/06","10:13:45","AMMA06",46797.000,"cc",28356.127,6.00,2835.613,1,6,0.100,25267.000,0.200,17001.000,0.300,3395.000,0.500,646.000,1.000,488.000,5.000,0
"07/01/06","10:13:51","AMMA06",46965.000,"cc",28314.703,6.00,2831.471,1,6,0.100,25525.000,0.200,17017.000,0.300,3245.000,0.500,701.000,1.000,477.000,5.000,0
"07/01/06","10:13:57","AMMA06",46402.000,"cc",28308.764,6.00,2830.877,1,6,0.100,25145.000,0.200,16872.000,0.300,3209.000,0.500,680.000,1.000,496.000,5.000,0
"07/01/06","10:14:03","AMMA06",46971.000,"cc",28288.795,6.00,2828.880,1,6,0.100,25420.000,0.200,17060.000,0.300,3308.000,0.500,685.000,1.000,498.000,5.000,0